Wind_Speed
51 48 47 43 40 37 34 32 30 27 26 22 22 20 19 18 18 17 15 14 16 17 19 19 18 16 17 18 20 19 17 12 11 12 10 7 7 6 8 10 11 12 14
60 54 52 48 44 41 37 35 34 31 29 26 24 21 20 22 21 19 18 16 15 16 17 18 17 17 18 18 17 18 16 14 14 12 11 12 12 14 13 14 16 17 17
62 57 53 50 49 46 40 37 36 32 29 28 27 24 21 21 22 20 18 17 17 17 16 16 18 18 18 20 20 20 18 16 16 14 12 12 12 13 15 18 19 20 20
67 67 57 57 54 52 47 42 39 35 32 31 29 27 25 23 22 19 19 18 17 17 16 16 17 18 18 19 19 19 18 17 17 15 16 13 14 15 16 20 21 22 23
74 71 65 62 60 57 55 49 44 40 37 34 32 30 27 26 22 20 18 19 20 19 18 17 17 17 20 20 19 18 17 17 18 17 17 17 16 17 20 21 22 22 25
70 73 70 66 63 60 58 54 50 44 41 38 35 30 26 26 25 23 22 20 20 22 21 19 19 19 21 21 20 21 19 18 18 19 21 20 20 21 22 24 25 25 27
63 72 67 67 65 62 59 57 54 50 46 42 38 33 27 28 27 26 24 22 22 23 23 23 23 24 24 23 22 23 23 21 20 21 22 23 25 28 28 28 29 28 29
57 68 64 68 69 66 62 60 59 55 52 47 42 37 33 34 33 31 28 25 25 25 25 26 27 27 28 28 28 26 24 24 22 23 22 22 22 25 28 29 30 27 26
48 56 54 55 71 67 67 62 62 60 56 53 48 42 37 37 36 33 31 30 30 29 29 29 31 31 32 30 32 31 28 25 24 23 24 24 25 29 32 29 31 33 36
48 49 50 51 68 68 64 62 61 63 60 58 53 46 40 42 40 37 36 33 34 35 35 34 34 34 34 34 36 36 35 33 30 30 30 29 30 33 36 34 35 37 37
48 28 49 58 60 69 73 70 63 61 63 62 59 52 48 46 44 41 41 37 36 38 39 39 38 37 39 39 39 36 33 33 32 33 34 33 33 35 38 38 38 40 38
52 65 56 73 68 69 74 75 71 63 62 65 64 58 56 52 49 47 45 44 41 43 41 40 42 41 44 42 41 37 39 37 37 37 35 34 32 34 38 41 43 39 39
61 67 85 93 80 68 67 69 71 69 66 65 65 60 55 53 51 51 48 46 46 47 46 43 43 45 45 43 42 43 42 42 42 41 38 38 36 33 38 38 36 39 42
66 77 84 77 79 78 70 64 66 68 69 64 63 60 55 57 55 54 55 55 50 50 49 48 45 45 42 41 46 45 45 44 46 45 42 37 30 38 38 39 42 44 44
69 78 71 69 69 76 68 65 55 59 68 70 68 63 61 59 54 53 56 54 54 52 53 49 51 51 49 49 50 48 49 48 47 46 40 34 36 39 38 39 41 43 45
71 75 80 80 77 73 64 55 61 62 62 63 66 63 62 61 59 60 59 51 49 51 50 47 52 56 54 55 57 56 52 50 47 47 46 39 41 39 39 40 43 43 49
69 80 79 84 81 75 76 75 65 76 71 63 65 65 65 60 61 60 62 62 60 57 56 53 60 59 57 60 61 57 59 49 49 47 45 48 44 41 40 43 45 46 53
70 76 84 92 84 79 72 74 70 66 66 68 61 63 65 64 58 56 56 56 61 57 58 56 60 60 56 60 56 56 53 51 52 49 52 51 48 48 50 51 54 52 56
70 78 84 90 94 82 76 74 78 74 59 57 63 63 55 56 52 54 53 56 53 54 59 60 60 58 58 56 59 58 58 56 57 55 58 55 55 59 55 60 56 54 62
70 75 80 86 79 78 81 75 71 71 72 63 59 59 63 61 57 60 59 54 54 56 58 58 59 56 61 61 59 57 60 58 60 61 58 58 56 59 63 62 70 66 68
74 77 78 80 83 68 73 71 73 76 74 62 66 63 61 64 65 57 60 61 62 64 60 63 63 61 63 61 60 62 63 62 65 59 60 65 59 65 68 69 72 71 72
76 78 78 78 71 70 66 70 70 77 71 62 67 68 61 62 57 61 66 63 67 67 67 66 68 64 64 60 58 60 65 66 66 68 71 70 71 73 76 79 76 77 79
81 76 70 83 88 75 79 76 81 81 77 70 68 62 59 64 65 67 65 65 64 65 67 66 60 62 65 63 64 64 66 68 69 75 76 75 77 80 81 80 78 81 80
84 87 92 84 89 90 88 81 82 79 77 79 75 63 66 66 63 61 61 61 57 63 65 67 67 68 66 65 67 69 68 70 74 79 80 82 87 84 83 81 84 85 78
86 89 88 87 88 89 84 85 85 83 81 86 82 82 78 75 72 70 70 68 66 64 68 72 73 73 74 70 69 71 74 75 77 78 77 88 85 77 84 84 88 85 83
95 95 95 96 86 91 90 87 93 82 83 87 83 87 87 87 78 72 77 78 74 75 72 70 69 71 72 74 77 77 80 81 80 71 78 83 82 87 88 89 91 86 89
Wind_Direction
242 242 244 246 246 250 253 253 254 255 257 258 254 254 257 257 265 270 274 285 291 293 289 284 285 286 303 309 314 319 314 298 301 312 321 310 313 311 318 328 321 319 324
244 241 246 243 243 246 248 248 251 252 255 256 258 255 255 258 263 271 278 280 285 294 294 284 281 282 295 298 302 313 313 297 297 305 314 318 318 320 315 326 325 321 323
241 241 243 241 243 244 245 249 250 251 252 253 256 258 256 256 263 268 272 276 284 296 300 296 288 283 294 300 306 317 317 304 300 296 303 305 309 314 318 319 321 319 318
237 241 239 241 242 242 242 245 248 251 252 254 255 256 259 261 266 266 269 267 279 294 299 304 296 290 293 300 305 312 318 314 306 303 301 296 302 307 311 313 314 314 312
239 243 238 239 239 239 243 242 244 248 251 250 252 254 257 260 260 262 266 267 275 287 293 305 300 300 297 299 302 306 313 309 308 304 299 292 296 300 302 304 307 310 311
238 242 243 237 238 238 239 240 241 245 249 250 251 252 257 257 259 261 264 270 272 281 285 293 297 296 301 302 300 298 304 305 301 301 302 296 291 295 296 298 301 305 309
234 240 242 240 238 238 237 238 240 242 245 250 250 248 251 254 255 260 262 266 270 276 279 284 293 298 298 300 300 302 299 298 296 294 295 293 291 292 292 298 302 307 308
232 235 241 241 237 237 236 239 240 241 242 245 249 248 248 254 255 254 260 264 267 273 277 280 284 290 296 295 301 300 292 294 295 294 291 294 292 298 300 294 297 303 311
226 235 235 239 237 238 236 239 240 240 242 242 246 246 247 253 257 256 256 262 266 268 272 278 280 286 293 293 295 301 292 286 281 280 282 284 288 295 297 297 297 303 310
230 224 235 230 235 234 234 237 238 238 240 242 244 246 246 250 256 257 256 259 263 269 274 275 279 283 289 290 296 293 292 287 280 279 281 282 285 291 296 296 301 307 311
222 216 243 228 225 237 236 236 238 238 239 243 245 245 249 254 262 261 258 258 262 266 268 271 277 281 284 287 290 291 285 286 283 284 283 284 292 293 298 299 303 305 305
212 188 207 231 233 233 236 236 239 240 241 242 245 248 250 252 260 262 259 262 261 264 266 267 275 280 282 283 285 286 287 284 285 291 290 290 290 301 303 302 305 305 302
210 205 214 226 229 230 231 232 234 237 241 244 244 245 249 253 257 259 259 260 264 265 268 267 271 276 278 278 278 282 285 281 285 290 290 288 289 302 314 306 303 300 300
209 206 215 226 231 230 229 230 235 236 239 242 241 243 249 254 257 258 259 261 260 263 265 271 273 276 273 272 272 280 283 280 286 288 286 287 286 304 306 300 298 296 301
211 213 218 224 217 225 228 233 239 243 238 239 243 247 250 251 254 259 260 261 260 264 267 270 275 270 266 268 277 280 283 283 285 284 280 282 289 301 305 298 296 297 301
215 207 213 218 218 227 220 224 225 233 235 237 241 245 249 251 257 257 267 262 263 263 264 270 270 269 267 268 273 278 281 283 280 279 276 277 290 299 305 302 295 298 307
217 216 218 221 225 223 218 219 223 236 238 241 242 239 243 244 250 256 260 262 263 258 256 264 271 265 266 268 274 277 278 278 276 272 275 279 285 296 301 301 301 294 305
215 213 218 219 219 219 221 221 221 231 239 243 244 245 244 246 248 251 261 255 260 262 258 255 258 263 264 273 275 274 275 275 273 272 271 275 283 293 298 301 301 299 310
216 213 216 219 218 221 219 223 223 230 236 244 243 244 243 243 246 258 257 256 259 258 258 257 258 265 268 271 273 272 273 271 270 268 270 277 280 295 297 302 304 300 307
217 215 213 215 215 227 223 223 223 224 238 239 247 245 249 245 247 254 258 252 254 255 258 255 259 262 266 272 273 274 271 268 267 267 268 277 290 287 290 297 305 301 304
213 211 210 209 215 215 217 217 219 221 226 234 242 251 251 248 249 249 247 251 253 255 258 258 262 267 268 271 269 269 269 266 263 271 274 281 287 291 296 294 299 304 303
210 210 202 207 211 207 216 220 219 224 229 234 240 245 248 246 243 242 248 254 256 257 256 256 262 265 265 267 268 268 268 264 267 274 276 281 284 287 290 297 299 302 307
203 205 206 213 214 209 217 223 221 225 231 233 237 241 244 243 239 242 248 254 258 257 259 259 256 261 262 265 266 264 264 267 270 274 278 282 282 285 290 295 300 299 303
202 198 205 210 217 221 221 223 228 227 229 233 241 233 238 237 232 238 237 241 244 248 246 249 252 255 257 263 263 264 264 266 270 274 278 279 281 285 289 293 300 305 302
205 203 200 213 217 225 226 227 230 228 232 235 237 240 235 232 233 238 235 239 241 250 251 250 253 258 259 263 262 265 270 273 273 275 271 279 281 281 291 297 304 300 301
199 208 209 217 218 221 225 226 227 233 234 235 238 237 234 235 235 239 237 238 241 243 251 252 257 260 259 262 263 263 266 272 275 271 281 281 282 291 292 298 301 297 300
Height
10876 10883 10884 10890 10893 10896 10899 10902 10904 10907 10908 10911 10913 10914 10915 10916 10917 10917 10918 10918 10917 10916 10916 10915 10914 10914 10913 10912 10911 10910 10909 10907 10907 10906 10905 10904 10902 10901 10899 10899 10898 10896 10895
10867 10874 10878 10883 10887 10890 10893 10896 10899 10902 10904 10907 10909 10911 10912 10913 10914 10914 10915 10915 10914 10914 10913 10913 10912 10912 10911 10910 10908 10907 10906 10906 10905 10904 10903 10903 10902 10901 10899 10898 10897 10895 10893
10861 10864 10871 10876 10880 10884 10888 10891 10894 10898 10899 10902 10905 10907 10909 10909 10910 10911 10912 10912 10912 10912 10911 10910 10910 10910 10909 10909 10908 10907 10905 10904 10903 10902 10901 10900 10899 10898 10897 10895 10894 10893 10891
10854 10851 10861 10867 10871 10876 10881 10884 10887 10891 10894 10896 10900 10903 10905 10906 10907 10907 10908 10908 10909 10909 10909 10908 10907 10907 10906 10905 10905 10904 10903 10902 10901 10900 10899 10897 10896 10895 10894 10893 10891 10889 10888
10841 10841 10849 10856 10862 10867 10873 10878 10881 10884 10888 10891 10894 10897 10900 10901 10902 10903 10904 10905 10905 10906 10906 10906 10905 10904 10903 10902 10902 10901 10900 10899 10898 10897 10896 10894 10893 10892 10891 10889 10888 10886 10884
10832 10832 10838 10846 10852 10858 10864 10869 10874 10878 10881 10885 10888 10892 10895 10897 10898 10899 10900 10901 10902 10903 10903 10903 10902 10901 10900 10899 10898 10897 10896 10896 10895 10894 10893 10891 10890 10888 10887 10885 10884 10882 10880
10820 10820 10831 10840 10845 10849 10855 10860 10866 10870 10874 10879 10883 10887 10890 10892 10893 10894 10895 10897 10898 10898 10899 10899 10899 10898 10897 10896 10895 10894 10893 10892 10892 10890 10889 10888 10887 10885 10883 10882 10880 10878 10876
10809 10810 10820 10831 10836 10840 10846 10851 10856 10861 10866 10871 10876 10880 10885 10885 10887 10889 10891 10892 10893 10894 10894 10894 10894 10894 10893 10892 10891 10891 10890 10888 10888 10887 10885 10884 10882 10880 10879 10879 10877 10875 10873
10795 10803 10813 10819 10825 10830 10835 10841 10846 10852 10858 10862 10868 10873 10878 10878 10880 10884 10886 10887 10888 10889 10889 10889 10889 10889 10889 10888 10888 10887 10886 10885 10883 10882 10881 10880 10879 10877 10875 10874 10873 10871 10869
10788 10793 10803 10804 10810 10818 10825 10830 10835 10841 10848 10854 10859 10865 10870 10872 10874 10877 10879 10881 10882 10883 10883 10883 10883 10883 10883 10883 10883 10882 10881 10880 10879 10878 10877 10875 10875 10872 10871 10870 10868 10867 10865
10779 10790 10776 10784 10797 10804 10814 10818 10824 10831 10838 10843 10850 10857 10862 10865 10868 10871 10872 10874 10875 10876 10877 10877 10877 10877 10876 10877 10877 10875 10875 10873 10872 10872 10871 10870 10870 10868 10867 10864 10862 10861 10858
10769 10782 10787 10774 10784 10790 10800 10808 10816 10822 10828 10834 10840 10849 10852 10857 10861 10863 10865 10867 10868 10869 10869 10869 10870 10869 10869 10869 10869 10869 10868 10867 10866 10866 10865 10865 10864 10863 10861 10858 10856 10854 10851
10749 10753 10764 10763 10772 10779 10787 10793 10801 10810 10818 10824 10830 10838 10844 10848 10851 10853 10857 10859 10860 10861 10862 10862 10863 10863 10862 10861 10861 10861 10861 10860 10859 10859 10858 10858 10857 10856 10853 10851 10848 10845 10843
10733 10741 10744 10757 10765 10770 10777 10785 10792 10799 10807 10814 10820 10827 10835 10838 10841 10845 10847 10850 10851 10853 10854 10854 10855 10853 10854 10853 10853 10853 10853 10853 10852 10851 10851 10850 10849 10848 10845 10844 10841 10839 10835
10721 10722 10734 10741 10753 10759 10771 10779 10783 10790 10797 10802 10809 10818 10824 10826 10830 10835 10838 10840 10842 10843 10845 10846 10846 10846 10845 10845 10845 10846 10845 10845 10844 10843 10843 10842 10841 10840 10838 10836 10833 10831 10829
10708 10710 10720 10731 10742 10751 10763 10769 10774 10779 10787 10792 10797 10808 10811 10814 10821 10824 10828 10829 10831 10833 10834 10836 10836 10836 10835 10835 10837 10837 10837 10837 10836 10835 10834 10833 10833 10831 10830 10828 10826 10824 10823
10697 10701 10709 10716 10730 10742 10751 10756 10764 10770 10777 10782 10787 10793 10799 10802 10806 10811 10814 10818 10820 10821 10823 10825 10825 10824 10822 10825 10828 10827 10828 10828 10826 10825 10826 10823 10824 10821 10821 10820 10818 10817 10815
10682 10685 10701 10703 10717 10729 10743 10748 10755 10758 10765 10772 10777 10783 10787 10791 10796 10800 10803 10806 10810 10811 10811 10811 10813 10812 10811 10814 10815 10816 10817 10816 10816 10816 10815 10814 10813 10811 10811 10810 10808 10808 10805
10668 10674 10683 10693 10707 10720 10731 10736 10741 10748 10754 10759 10766 10771 10776 10781 10785 10790 10792 10795 10798 10799 10799 10801 10801 10801 10801 10803 10804 10805 10804 10804 10805 10804 10804 10803 10803 10800 10798 10797 10797 10797 10793
10659 10666 10675 10683 10700 10710 10718 10723 10729 10740 10746 10748 10755 10759 10764 10769 10773 10777 10781 10784 10786 10786 10788 10788 10789 10790 10789 10790 10792 10793 10792 10793 10793 10791 10791 10791 10790 10788 10788 10787 10784 10785 10780
10641 10652 10663 10674 10690 10698 10705 10711 10719 10726 10735 10738 10746 10747 10752 10757 10761 10765 10770 10771 10774 10774 10775 10775 10777 10777 10775 10779 10780 10778 10781 10780 10779 10779 10778 10777 10777 10777 10775 10777 10774 10772 10772
10633 10643 10657 10670 10679 10688 10693 10698 10709 10717 10723 10730 10733 10740 10741 10743 10748 10752 10755 10758 10761 10761 10761 10761 10763 10765 10764 10766 10767 10766 10767 10768 10767 10765 10765 10764 10764 10762 10762 10763 10765 10760 10759
10623 10636 10650 10660 10671 10677 10680 10687 10697 10706 10711 10715 10722 10725 10725 10729 10735 10739 10743 10746 10749 10749 10747 10748 10750 10751 10753 10753 10754 10753 10754 10754 10753 10748 10750 10749 10748 10747 10746 10750 10750 10750 10744
10616 10626 10641 10650 10658 10667 10671 10676 10682 10693 10699 10702 10707 10712 10711 10715 10718 10723 10728 10730 10734 10733 10732 10732 10734 10737 10740 10741 10739 10738 10738 10739 10735 10735 10730 10732 10730 10731 10734 10732 10734 10729 10725
10604 10615 10631 10641 10646 10653 10658 10662 10670 10679 10682 10689 10692 10695 10694 10696 10700 10707 10715 10715 10717 10716 10716 10719 10722 10724 10726 10727 10727 10725 10720 10719 10715 10719 10716 10713 10711 10713 10715 10711 10708 10709 10706
10591 10603 10618 10625 10634 10639 10640 10646 10657 10663 10668 10672 10678 10677 10674 10679 10685 10697 10699 10700 10702 10704 10705 10706 10710 10711 10710 10711 10712 10711 10706 10706 10701 10698 10696 10693 10689 10692 10693 10696 10694 10692 10690